Location: Unspecified
(35.0686°N, 0.0000°E)
Time: 00:18:58
(UTC+00:00)

NOAA 11 DEB - Visible Passes

Search period start: 05 April 2026 00:00
Search period end: 15 April 2026 00:00
Orbit: 781 x 813 km, 99.0° (Epoch: 29 March)

Date Brightness Start Highest point End Pass type
(mag) Time Alt. Az. Time Alt. Az. Time Alt. Az.
5 Apr ? 03:41:45 10° ESE 03:45:58 26° ENE 03:50:11 10° NNE visible
6 Apr ? 03:16:02 10° E 03:18:43 14° ENE 03:21:25 10° NNE visible
6 Apr ? 04:52:39 10° S 04:57:44 61° WSW 05:02:51 10° NNW visible
6 Apr ? 18:50:55 10° NNW 18:53:40 15° WNW 18:56:27 10° W visible
7 Apr ? 04:25:05 10° SSE 04:30:13 71° ENE 04:35:21 10° N visible
8 Apr ? 03:58:04 10° SE 04:02:47 37° ENE 04:07:30 10° N visible
9 Apr ? 03:31:44 10° ESE 03:35:28 21° ENE 03:39:12 10° NNE visible
9 Apr ? 05:09:53 10° S 05:14:43 41° W 05:19:34 10° NNW visible
10 Apr ? 03:06:54 10° ENE 03:08:16 11° ENE 03:09:38 10° NE visible
10 Apr ? 04:41:58 10° S 04:47:07 79° WSW 04:52:18 10° NNW visible
11 Apr ? 04:14:37 10° SSE 04:19:38 54° ENE 04:24:39 10° N visible
12 Apr ? 03:47:50 10° SE 03:52:14 29° ENE 03:56:38 10° N visible
13 Apr ? 03:21:52 10° ESE 03:24:58 16° ENE 03:28:02 10° NNE visible
13 Apr ? 04:59:01 10° S 05:04:03 54° W 05:09:05 10° NNW visible
13 Apr ? 18:57:35 10° NW 18:59:55 13° WNW 19:02:16 10° W visible
14 Apr ? 04:31:20 10° SSE 04:36:28 80° ENE 04:41:38 10° N visible
